Flag for Kenya Weather past 2 weeks in Nairobi, Kenya

Now
72 °F

Partly sunny.


Feels Like: 77 °F
Forecast: 58 / 69 °F
Wind: No wind

Location: Nairobi / Wilson

Current Time: Aug 5, 2015 at 4:22:37 PM

Latest Report: Aug 5, 2015 at 3:00 PM


Visibility: N/A

Pressure: 30.15 "Hg (24.82 "Hg at 1680m altitude)

Humidity: 53%

Dew point: 54 °F

Location of NairobiLocation

Historic Weather in Nairobi — Graph

°F

Nairobi temperature yesterday

Maximum temperature yesterday: 70 °F (at 3:00 PM)
Minimum temperature yesterday: 59 °F (at 7:00 AM)
Average temperature yesterday: 64 °F

Past Weeks' High & Low Weather Summary

 TemperatureHumidityPressure
High81 °F (Jul 31, 4:00 PM)100% (Jul 23, 10:00 PM)30.30 "Hg (Jul 23, 10:00 PM)
Low54 °F (Jul 26, 6:00 AM)34% (Jul 31, 4:00 PM)30.07 "Hg (Jul 31, 4:00 PM)
Average66 °F70%30.20 "Hg
* Reported Jul 21 3:00 PM — Aug 5 3:00 PM, Nairobi, Weather by CustomWeather, © 2015

Note: Actual official high and low records may vary slightly from our data, if they occured in-between our weather recording intervals... More about our weather records

Advertising

Nairobi weather history for previous 24 hours

 ConditionsComfort  
Time TempWeatherWind HumidityBarometerVisibility
3:00 PM
Wed, Aug 5
72 °FPartly sunny.No wind53%30.15 "HgN/A
2:00 PM72 °FPartly sunny.9 mph53%30.18 "HgN/A
1:00 PM70 °FPartly sunny.6 mph57%30.21 "HgN/A
12:00 PM68 °FPartly sunny.8 mph56%30.21 "HgN/A
11:00 AM68 °FPartly sunny.8 mph60%30.24 "HgN/A
10:00 AM64 °FBroken clouds.No wind68%30.24 "HgN/A
9:00 AM61 °FPartly sunny.No wind77%30.24 "HgN/A
8:00 AM57 °FBroken clouds.6 mph88%30.24 "HgN/A
7:00 AM55 °FBroken clouds.6 mph88%30.24 "HgN/A
6:00 AM59 °FPassing clouds.No wind82%30.21 "HgN/A
10:00 PM
Tue, Aug 4
63 °FPassing clouds.5 mph77%30.24 "HgN/A
9:00 PM63 °FPassing clouds.No wind77%30.21 "HgN/A
8:00 PM64 °FPassing clouds.8 mph68%30.18 "HgN/A
7:00 PM66 °FPassing clouds.12 mph64%30.18 "HgN/A
6:00 PM68 °FPartly sunny.7 mph64%30.15 "HgN/A
4:00 PM70 °FPartly sunny.10 mph57%30.15 "HgN/A
Weather by CustomWeather, © 2015

See weather overviewHow to use our weather pages